Weather History for Liberal, KS

Change the Weather History Date:

Thursday, January 31, 2013

  Actual Average Record
Temperature  
Mean Temperature 32 °F -  
Max Temperature 46 °F 51 °F 78 °F (1986)
Min Temperature 19 °F 22 °F -1 °F (1979)
Degree Days  
Heating Degree Days 32    
Moisture  
Dew Point 18 °F    
Average Humidity 58    
Maximum Humidity 74    
Minimum Humidity 43    
Precipitation  
Precipitation 0.00 in - - ()
Sea Level Pressure  
Sea Level Pressure 30.12 in    
Wind  
Wind Speed 12 mph (North)    
Max Wind Speed 24 mph    
Max Gust Speed 28 mph    
Visibility 10 miles    
Events      
Averages and records for this station are not official NWS values.
T = Trace of Precipitation, MM = Missing Value Source: NWS Daily Summary

Daily Weather History Graph

Daily Weather History Graph

Search for Another Location

Airport:

Trip Planner

Search our weather history database for the weather conditions in past years. The results will help you decide how hot, cold, wet, or windy it might be!

Date:

Astronomy

Jan. 31, 2013 Rise Set
Actual Time 7:47 AM CST 6:08 PM CST
Civil Twilight 7:19 AM CST 6:35 PM CST
Nautical Twilight 6:48 AM CST 7:06 PM CST
Astronomical Twilight 6:17 AM CST 7:37 PM CST
Moon 11:03 PM CST (1/31) 9:55 AM CST (1/31)
Length of Visible Light 11h 15m
Length of Day
10h 21m
Waning Gibbous, 79% of the Moon is Illuminated
Jan 31
Waning Gibbous
Feb 3
Last Quarter
Feb 10
New
Feb 17
First Quarter
Feb 25
Full

Hourly Weather History & Observations

Time (CST) Temp. Windchill Dew Point Humidity Pressure Visibility Wind Dir Wind Speed Gust Speed Precip Events Conditions
12:15 AM 28.4 °F 19.1 °F 14.0 °F 55% 29.99 in 10.0 mi West 10.4 mph - N/A   Clear
12:35 AM 28.4 °F 19.7 °F 14.0 °F 55% 29.99 in 10.0 mi WSW 9.2 mph - N/A   Mostly Cloudy
12:55 AM 30.2 °F 21.3 °F 15.8 °F 55% 29.99 in 10.0 mi West 10.4 mph - N/A   Scattered Clouds
1:15 AM 28.4 °F 19.7 °F 14.0 °F 55% 29.99 in 10.0 mi WSW 9.2 mph - N/A   Clear
1:35 AM 26.6 °F 17.5 °F 14.0 °F 59% 29.98 in 10.0 mi WSW 9.2 mph - N/A   Scattered Clouds
1:55 AM 26.6 °F 16.2 °F 15.8 °F 64% 29.98 in 10.0 mi WSW 11.5 mph - N/A   Partly Cloudy
2:15 AM 24.8 °F 15.3 °F 12.2 °F 59% 29.96 in 10.0 mi WSW 9.2 mph - N/A   Clear
2:35 AM 24.8 °F 16.1 °F 12.2 °F 59% 29.96 in 10.0 mi WSW 8.1 mph - N/A   Clear
2:55 AM 23.0 °F 13.9 °F 12.2 °F 63% 29.96 in 10.0 mi West 8.1 mph - N/A   Clear
3:15 AM 24.8 °F 15.3 °F 12.2 °F 59% 29.97 in 10.0 mi SW 9.2 mph - N/A   Clear
3:35 AM 24.8 °F 16.1 °F 14.0 °F 64% 29.97 in 10.0 mi SW 8.1 mph - N/A   Clear
3:55 AM 23.0 °F 15.8 °F 12.2 °F 63% 29.96 in 10.0 mi WSW 5.8 mph - N/A   Clear
4:15 AM 21.2 °F 12.6 °F 12.2 °F 68% 29.96 in 10.0 mi WSW 6.9 mph - N/A   Clear
4:35 AM 21.2 °F 12.6 °F 12.2 °F 68% 29.96 in 10.0 mi West 6.9 mph - N/A   Clear
4:55 AM 21.2 °F 11.7 °F 12.2 °F 68% 29.96 in 10.0 mi WSW 8.1 mph - N/A   Clear
5:15 AM 21.2 °F 14.9 °F 12.2 °F 68% 29.97 in 10.0 mi West 4.6 mph - N/A   Clear
5:35 AM 21.2 °F 12.6 °F 12.2 °F 68% 29.96 in 10.0 mi WSW 6.9 mph - N/A   Clear
6:15 AM 24.8 °F 14.6 °F 17.6 °F 74% 29.96 in 10.0 mi West 10.4 mph - N/A   Clear
6:35 AM 26.6 °F 17.5 °F 15.8 °F 64% 29.97 in 10.0 mi West 9.2 mph - N/A   Clear
6:55 AM 24.8 °F 14.6 °F 15.8 °F 69% 29.98 in 10.0 mi West 10.4 mph - N/A   Clear
7:15 AM 26.6 °F 16.2 °F 15.8 °F 64% 29.98 in 10.0 mi West 11.5 mph - N/A   Clear
7:35 AM 26.6 °F 16.2 °F 17.6 °F 69% 29.99 in 10.0 mi West 11.5 mph - N/A   Clear
7:55 AM 26.6 °F 15.7 °F 15.8 °F 64% 30.01 in 10.0 mi WNW 12.7 mph - N/A   Clear
8:15 AM 26.6 °F 15.7 °F 15.8 °F 64% 30.01 in 10.0 mi WNW 12.7 mph - N/A   Clear
8:35 AM 28.4 °F 18.5 °F 19.4 °F 69% 30.02 in 10.0 mi WNW 11.5 mph - N/A   Clear
8:55 AM 33.8 °F 23.2 °F 21.2 °F 60% 30.04 in 10.0 mi NW 17.3 mph - N/A   Clear
9:15 AM 35.6 °F 25.2 °F 21.2 °F 56% 30.07 in 10.0 mi NW 18.4 mph - N/A   Mostly Cloudy
9:35 AM 37.4 °F 27.8 °F 23.0 °F 56% 30.08 in 7.0 mi NW 17.3 mph 23.0 mph N/A   Partly Cloudy
9:55 AM 37.4 °F 26.9 °F 21.2 °F 52% 30.09 in 10.0 mi NNW 20.7 mph - N/A   Clear
10:15 AM 37.4 °F 26.6 °F 23.0 °F 56% 30.11 in 10.0 mi North 21.9 mph 27.6 mph N/A   Clear
10:35 AM 39.2 °F 29.3 °F 21.2 °F 49% 30.12 in 10.0 mi North 20.7 mph 26.5 mph N/A   Clear
10:55 AM 41.0 °F 31.6 °F 24.8 °F 53% 30.13 in 10.0 mi NNE 20.7 mph 26.5 mph N/A   Clear
11:15 AM 42.8 °F 34.5 °F 24.8 °F 49% 30.13 in 10.0 mi NE 18.4 mph - N/A   Clear
11:35 AM 42.8 °F 34.3 °F 24.8 °F 49% 30.14 in 10.0 mi NNE 19.6 mph - N/A   Clear
11:55 AM 44.6 °F 36.9 °F 24.8 °F 46% 30.14 in 10.0 mi NE 18.4 mph - N/A   Clear
12:15 PM 44.6 °F 35.7 °F 24.8 °F 46% 30.17 in 10.0 mi NNE 24.2 mph 27.6 mph N/A   Clear
12:35 PM 44.6 °F 36.6 °F 24.8 °F 46% 30.17 in 10.0 mi NE 19.6 mph 27.6 mph N/A   Clear
12:55 PM 44.6 °F 36.4 °F 26.6 °F 49% 30.16 in 10.0 mi NNE 20.7 mph 26.5 mph N/A   Clear
1:15 PM 44.6 °F 38.1 °F 24.8 °F 46% 30.16 in 10.0 mi NNE 13.8 mph - N/A   Clear
1:35 PM 44.6 °F 38.4 °F 24.8 °F 46% 30.17 in 10.0 mi NNE 12.7 mph 18.4 mph N/A   Clear
2:15 PM 46.4 °F 40.1 °F 26.6 °F 46% 30.17 in 10.0 mi NNE 15.0 mph 21.9 mph N/A   Clear
2:35 PM 46.4 °F 40.4 °F 26.6 °F 46% 30.16 in 10.0 mi NE 13.8 mph 20.7 mph N/A   Clear
2:55 PM 46.4 °F 40.1 °F 24.8 °F 43% 30.17 in 10.0 mi NNE 15.0 mph - N/A   Clear
3:15 PM 44.6 °F 38.4 °F 24.8 °F 46% 30.18 in 10.0 mi NE 12.7 mph - N/A   Clear
3:35 PM 44.6 °F 38.8 °F 24.8 °F 46% 30.19 in 10.0 mi NNE 11.5 mph - N/A   Clear
3:55 PM 44.6 °F 38.8 °F 24.8 °F 46% 30.19 in 10.0 mi NE 11.5 mph - N/A   Clear
4:15 PM 44.6 °F 38.8 °F 23.0 °F 43% 30.19 in 10.0 mi ENE 11.5 mph - N/A   Clear
4:35 PM 44.6 °F 40.2 °F 23.0 °F 43% 30.20 in 10.0 mi ENE 8.1 mph - N/A   Clear
4:55 PM 42.8 °F 38.0 °F 23.0 °F 46% 30.21 in 10.0 mi East 8.1 mph - N/A   Clear
5:15 PM 42.8 °F 39.3 °F 23.0 °F 46% 30.22 in 10.0 mi East 5.8 mph - N/A   Clear
5:35 PM 42.8 °F 38.6 °F 23.0 °F 46% 30.23 in 10.0 mi ESE 6.9 mph - N/A   Clear
6:15 PM 37.4 °F 29.3 °F 21.2 °F 52% 30.24 in 10.0 mi East 12.7 mph - N/A   Clear
6:35 PM 35.6 °F 26.6 °F 17.6 °F 48% 30.24 in 10.0 mi East 13.8 mph 19.6 mph N/A   Clear
7:15 PM 30.2 °F 19.3 °F 17.6 °F 60% 30.27 in 10.0 mi East 15.0 mph 19.6 mph N/A   Clear
7:35 PM 28.4 °F 17.0 °F 15.8 °F 59% 30.27 in 10.0 mi East 15.0 mph 20.7 mph N/A   Clear
7:55 PM 28.4 °F 17.0 °F 15.8 °F 59% 30.28 in 10.0 mi East 15.0 mph - N/A   Clear
8:15 PM 26.6 °F 14.7 °F 15.8 °F 64% 30.29 in 10.0 mi East 15.0 mph - N/A   Clear
8:35 PM 26.6 °F 15.2 °F 15.8 °F 64% 30.30 in 10.0 mi East 13.8 mph - N/A   Clear
8:55 PM 24.8 °F 12.9 °F 15.8 °F 69% 30.29 in 10.0 mi East 13.8 mph - N/A   Clear
9:15 PM 24.8 °F 14.0 °F 15.8 °F 69% 30.30 in 10.0 mi East 11.5 mph - N/A   Clear
9:35 PM 23.0 °F 11.1 °F 15.8 °F 74% 30.29 in 10.0 mi East 12.7 mph - N/A   Clear
9:55 PM 23.0 °F 11.1 °F 14.0 °F 68% 30.29 in 10.0 mi East 12.7 mph - N/A   Clear
10:15 PM 21.2 °F 8.9 °F 14.0 °F 74% 30.29 in 10.0 mi East 12.7 mph - N/A   Clear
10:35 PM 21.2 °F 10.1 °F 14.0 °F 74% 30.29 in 10.0 mi East 10.4 mph - N/A   Clear
11:15 PM 19.4 °F 7.2 °F 12.2 °F 74% 30.28 in 10.0 mi East 11.5 mph - N/A   Clear
11:35 PM 19.4 °F 7.2 °F 12.2 °F 74% 30.28 in 10.0 mi ESE 11.5 mph - N/A   Clear